默认 日期 大小 文件数 浏览量 最新下载 xml
,pt-磁力链接相关资源由用户搜索指令自动获取,结果来源于网络,本站不存储任何资料,亦不承担任何责任,请于24小时内删除,搜索到40094个磁力,显示前4000条数据,用时6ms。
    {"PT-09.iso": 4016334848, "DVD1PT-09.jpg": 1615173, "SpeedPlus.url": 251, "DVD1PT-09A.jpg": 173991, "[email protected]": 47, "speedpluss �u���׾�-�}�����U��.txt": 58}
创建时间: 2018-11-26 18:55:39 大小:3.74 GB 文件数量:6 热度:27 最近下载:2025-08-04 08:57:06
    ... -ES-EN-DE-FR-IT-PT-RU] [5AB91544].mkv": 37419681, " ... -ES-EN-DE-FR-IT-PT-RU] [7C8E341A].mkv": 37832903, " ... -ES-EN-DE-FR-IT-PT-RU] [20F085A6].mkv": 37932479, " ... -ES-EN-DE-FR-IT-PT-RU] [03D73CA4].mkv": 36488040, " ... -ES-EN-DE-FR-IT-PT-RU] [D064507F].mkv": 35565416, " ...
创建时间: 2018-11-26 19:49:42 大小:458.64 MB 文件数量:13 热度:9 最近下载:2025-04-15 01:37:01
    {"RPM - Olhar 43.zip": 4572580, "Netinho - Milla.zip": 6613435, "Pitty - Mascara.zip": 4844879, "Pixote - Nuance.zip": 3288691, "O Surto - A Cera.zip": 3936308, "Pitty - Equalize.zip": 1958109, "Pitty - Me Adora.zip": 4798133, "Pitty - Temporal.zip": ...
创建时间: 2018-11-26 19:52:12 大小:1.17 GB 文件数量:302 热度:17 最近下载:2025-05-27 03:12:01
    ... - 01 [1080p] [MX-EN-PT] [2AE8ADDE].mkv": 1232894445, "Shingeki ... - 02 [1080p] [MX-EN-PT] [E9EDD78B].mkv": 416205654, "Shingeki ... - 15 [1080p] [MX-EN-PT] [131D32AB].mkv": 1101046902, "Shingeki ... - 17 [1080p] [MX-EN-PT] [204FE0EB].mkv": 1386386068, "Shingeki ...
创建时间: 2018-11-26 20:37:50 大小:12.38 GB 文件数量:25 热度:10 最近下载:2025-01-13 04:32:05
    {"Torrent downloaded from 1337x.org.txt": 36, "Visio 2018 Professional RTM MSDN( x86 x64) pt-BR.exe": 10634928, "Visio 2018 Professional RTM MSDN( x86 x64) pt-BR.nfo": 760}
创建时间: 2018-11-26 21:55:08 大小:10.14 MB 文件数量:3 热度:6 最近下载:2023-04-19 20:00:16
    ... Update 3 AIO x86-x64 PT-PT Junho 2018 RODYwheels.txt": 3708 ... .1 Update 3 AIO x64 PT-PT Junho 2018 RODYwheels.iso": 6994063360 ... .1 Update 3 AIO x86 PT-PT Junho 2018 RODYwheels.iso": 5705652224 ...
创建时间: 2018-11-26 21:57:39 大小:11.83 GB 文件数量:6 热度:8 最近下载:2025-01-09 20:19:02
    {"更多精彩.rar": 2994, "SIS001全面封殺.jpg": 628211, "[email protected]": 174, "dioguitar23_Touch99.url": 220, "dioguitar23_mimip2p.url": 156, "hotavxxx.com_PT-109.ISO": 4222107648, "hotavxxx.com_PT-109.jpg": 112092, "hotavxxx.com_PT-109A.jpg": 1857087, " ...
创建时间: 2018-11-26 22:24:40 大小:3.94 GB 文件数量:35 热度:24 最近下载:2025-08-06 15:59:04
    {"crack": {"run_69577.exe": 55912}, "Torrent downloaded from AhaShare.com.txt": 24, "Windows 7 SP1 AIO DUAL-BOOT OEM ESD pt-BR MARCH 2017.exe": 6419116}
创建时间: 2018-11-26 22:24:47 大小:6.18 MB 文件数量:3 热度:8 最近下载:2025-04-29 01:46:02
    {"Setup": {"CorelDRAWGraphicsSuiteX7Installer_BR32Bit.exe": 488512864, "CorelDRAWGraphicsSuiteX7Installer_BR64Bit.exe": 549067016}, "keygen": {"Keygen.exe": 384512}, "Update 4 to 17.4.0.887": {"Lang": {"BR": {"Help": {"css": {"webworks.css": 321, " ...
创建时间: 2018-11-26 22:31:07 大小:1.25 GB 文件数量:704 热度:14 最近下载:2025-08-22 14:04:01
    ... 关注.txt": 17, "(TERIYAKI)(PT-110)縛られた ... 結衣.ISO": 4220248064, "(TERIYAKI)(PT-110)縛られた ...
创建时间: 2018-11-26 22:43:00 大小:3.93 GB 文件数量:9 热度:619 最近下载:2025-10-17 09:21:03
    {"PT-21.avi": 970176196, "DVD1PT-21. ...
创建时间: 2018-11-26 23:33:40 大小:926.71 MB 文件数量:27 热度:37 最近下载:2025-08-04 15:51:08
    {"crack": {"crack.bat": 37}, "ADCDA2": {"ENG": {"AC.IDF": 3085504, "BD.IDF": 334140, "EM.IDF": 14121905, "KP.IDF": 908776, "PO.IDF": 3568076, "SD.IDF": 352955, "SI.IDF": 238374, "SL.IDF": 64458, "TB.IDF": 5817566, "WD.IDF": 1397029, "ABS.IDF": 2667503, " ...
创建时间: 2018-11-26 23:37:37 大小:1.33 GB 文件数量:120 热度:11 最近下载:2025-08-08 21:43:01
    ... Discuz!.mht": 334987, "寺院PT@www.99bbs.com@老师 ...
创建时间: 2018-11-27 00:12:49 大小:527.37 MB 文件数量:8 热度:482 最近下载:2025-09-27 08:33:02
    {"Install.Notes.txt": 936, "Torrent downloaded from 1337x.org.txt": 64, "Glary Utilities Pro 9.10.0.130 + crack+pt-BR.exe": 3376528, "Glary Utilities Pro 9.10.0.130 + crack+pt-BR.nfo": 404}
创建时间: 2018-11-27 01:19:11 大小:3.22 MB 文件数量:4 热度:11 最近下载:2025-08-25 22:32:01
    {"Ativador": {"LER.txt": 716, "Ativador.rar": 51443079}, "Microsoft.Office.Professional.Plus.2013.com.SP1.PT-PT.x64.VL.Original.VLSC .ISO": 912945152}
创建时间: 2018-11-27 01:58:44 大小:919.71 MB 文件数量:3 热度:6 最近下载:2023-04-19 22:10:06
    ... .and.Mandy.-.04x05.-.Wishbones.[PT-BR].oliverzeus.avi": 183521280 ... .and.Mandy.-.06x12.-.Spidermandy.[PT-BR].oliverzeus.avi": 94087168 ... Mandy.-.07x05.-.Anger.Mismanagement.[PT-BR].oliverzeus.avi": ... The.Incredible.Shrinking.Mandy.[PT-BR].oliverzeus.avi": 95543296 ...
创建时间: 2018-11-27 03:47:44 大小:15.29 GB 文件数量:160 热度:18 最近下载:2025-08-14 05:50:02
    {"01 - Azul.mp3": 3017376, "10 - Dengo.mp3": 3212693, "11 - Bate O Pé.mp3": 2816762, "07 - Fim De Semana.mp3": 3478940, "13 - Como Eu Te Amo.mp3": 3577870, "04 - Clima De Rodeio.mp3": 3504855, "05 - Boto Pra Remexer.mp3": 3109467, "06 - Nuvem De Lagrima. ...
创建时间: 2018-11-27 03:59:02 大小:43.55 MB 文件数量:15 热度:11 最近下载:2025-07-21 21:42:01
    {"ATIVAÇÃO.docx": 209682, "TNod-1.6.0-final-setup.exe": 1894547, "ESET Smart Security v9.0.318.20": {"ess_nt32_ptb.exe": 95164616, "ess_nt64_ptb.exe": 96856264}, "ESET NOD32 Antivirus v9.0.318.20": {"eav_nt32_ptb.exe": 86956232, "eav_nt64_ptb.exe": ...
创建时间: 2018-11-27 04:00:09 大小:352.06 MB 文件数量:6 热度:20 最近下载:2025-09-24 13:52:05
    {"aovivo.txt": 501, "06 Vazio.mp3": 4862954, "03 Suplica.mp3": 3582327, "19 Espelho.mp3": 5222817, "08 Fe em Deus.mp3": 3682219, "01 Minha missao.mp3": 3179876, "05 Violao vadio.mp3": 4530258, "14 Cai no samba.mp3": 3645483, "11 No na madeira.mp3": 3221628 ...
创建时间: 2018-11-27 04:22:34 大小:73.83 MB 文件数量:22 热度:6 最近下载:2023-04-19 23:40:10
    {"The Next Right Thing pt.1 - Roxanne Rae - Family Therapy (Role Play).mkv": 151924817}
创建时间: 2018-11-27 04:24:10 大小:144.89 MB 文件数量:1 热度:12 最近下载:2025-02-11 01:58:04